Iowa Falls Municipal Airport
Wednesday 10:55 PM
Temperature64° (82°/50°)
Dew Point55°
Relative Humidity73
%
Visibility10
mi
Pressure1013.9
mb
Wind DirectionS
190°
Wind Speed7
mph
Precipitation Today0.00"

Last 30 Observations

Time PresWx Temp DP Feels RH% Vsby Pressure Ceiling Direction Speed 1h Precip
10:35 PM 64° 55° 71
%
10
mi
1014.2
mb
S
190°
7
mph
0.00"
10:15 PM 64° 55° 72
%
10
mi
1014.6
mb
SSW
200°
6
mph
0.00"
9:55 PM 63° 55° 73
%
10
mi
1014.6
mb
S
180°
7
mph
0.00"
9:35 PM 64° 55° 72
%
10
mi
1014.6
mb
SSE
160°
7
mph
0.00"
9:15 PM 64° 54° 69
%
10
mi
1014.6
mb
4,600
ft
SSE
160°
7
mph
0.00"
8:55 PM 65° 54° 69
%
10
mi
1014.9
mb
SSE
160°
5
mph
0.00"
8:35 PM 66° 54° 66
%
10
mi
1014.6
mb
SSE
160°
7
mph
0.00"
8:15 PM 66° 54° 65
%
10
mi
1014.6
mb
SSE
160°
6
mph
0.00"
7:55 PM 67° 54° 63
%
10
mi
1014.2
mb
SSE
160°
6
mph
0.00"
7:35 PM 68° 54° 60
%
10
mi
1014.2
mb
S
170°
7
mph
0.00"
7:15 PM 71° 54° 71°54
%
10
mi
1014.2
mb
S
180°
5
mph
0.00"
6:55 PM 74° 54° 73°50
%
10
mi
1013.9
mb
S
170°
5
mph
0.00"
6:35 PM 76° 54° 75°46
%
10
mi
1013.9
mb
S
190°
6
mph
0.00"
6:15 PM 77° 53° 77°43
%
10
mi
1013.9
mb
S
180°
8
mph
0.00"
5:55 PM 78° 53° 78°41
%
10
mi
1013.9
mb
S
190°
10
mph
0.00"
5:35 PM 79° 52° 78°39
%
10
mi
1013.9
mb
SSW
200°
10
mph
0.00"
5:15 PM 80° 51° 79°37
%
10
mi
1013.9
mb
S
180°
11
mph
(G17)
0.00"
4:55 PM 80° 51° 79°36
%
10
mi
1013.9
mb
S
190°
10
mph
(G21)
0.00"
4:35 PM 80° 51° 79°36
%
10
mi
1013.9
mb
S
170°
11
mph
(G16)
0.00"
4:15 PM 80° 51° 80°36
%
10
mi
1014.2
mb
S
190°
13
mph
(G20)
0.00"
3:55 PM 81° 52° 80°37
%
10
mi
1014.6
mb
S
190°
13
mph
(G18)
0.00"
3:35 PM 81° 52° 80°36
%
10
mi
1014.6
mb
SSW
200°
10
mph
(G17)
0.00"
3:15 PM 81° 52° 80°36
%
10
mi
1014.6
mb
S
180°
10
mph
0.00"
2:55 PM 81° 53° 80°38
%
10
mi
1014.6
mb
S
180°
10
mph
(G18)
0.00"
2:35 PM 79° 52° 79°39
%
10
mi
1014.9
mb
S
180°
11
mph
0.00"
2:15 PM 79° 53° 78°40
%
10
mi
1015.2
mb
S
190°
11
mph
0.00"
1:55 PM 79° 54° 79°42
%
10
mi
1015.6
mb
SSW
200°
11
mph
(G16)
0.00"
1:35 PM 80° 53° 79°39
%
10
mi
1015.9
mb
SSW
200°
9
mph
0.00"
1:15 PM 78° 57° 78°48
%
10
mi
1016.3
mb
S
180°
6
mph
0.00"
12:55 PM 78° 55° 78°46
%
10
mi
1016.3
mb
S
180°
11
mph
0.00"